[[{"header":{"parameterUnit":"m.s-1","parameterCategory":1,"la1":30.2991,"la2":30.254,"lo1":-89.0895,"lo2":-89.0444,"dy":0.0017,"dx":0.0017,"nx":28,"ny":28,"refTime":"2025-12-21T03:00:00:Z","depth":0,"parameterNumber":2,"parameterNumberName":"U-component_of_WINDS"},"data":[0,0,0,0,0,0,0,0,0,0,0,0,0,0,0,0,0,0,0,0,0,0,0,0,0,0,0,0,0,0,0,0,0,0,0,0,0,0,0,0,0,0,0,0,0,0,0,0,0,0,0,0,0,0,0,0,0,0,-2.1101,-2.1101,0,-2.1097,-2.1097,-2.1097,-2.1025,-2.1024,-2.1022,-2.102,-2.1017,-2.1019,-2.1021,0,0,0,0,0,0,0,0,0,0,0,0,0,-2.1045,-2.1047,-2.1101,-2.1101,-2.11,-2.1097,-2.1097,-2.1097,-2.1026,-2.1024,-2.1021,-2.1019,-2.1017,-2.1019,-2.1021,0,0,0,0,0,0,0,0,0,0,0,0,0,-2.1059,-2.1047,-2.1101,-2.1064,-2.1061,-2.1097,-2.1097,-2.1097,-2.1026,-2.1023,-2.1021,-2.1018,-2.1016,-2.1019,-2.1021,-2.1092,0,0,-2.1029,-2.103,0,0,0,0,0,0,0,0,-2.1058,-2.1061,-2.107,-2.1067,-2.1063,-2.1059,-2.1077,-2.1095,-2.1027,-2.104,-2.102,-2.1017,-2.1033,-2.1034,-2.104,-2.1092,-2.1092,-2.1029,-2.103,-2.1031,-2.1032,0,0,0,0,0,0,0,-2.1057,-2.106,-2.1099,-2.107,-2.1066,-2.1049,-2.1047,-2.108,-2.1052,-2.1038,-2.1033,-2.1034,-2.1031,-2.1038,-2.1039,-2.1091,-2.1029,-2.1031,-2.1032,-2.1033,-2.1201,-2.1203,0,0,0,0,0,0,-2.1061,-2.106,-2.1099,-2.1099,-2.1054,-2.1052,-2.105,-2.1063,-2.1052,-2.1047,-2.1036,-2.103,-2.1035,-2.1036,-2.1039,-2.112,-2.1031,-2.1034,-2.1035,-2.1198,-2.1201,-2.1204,0,0,0,0,0,0,-2.106,-2.1065,-2.1099,-2.1078,-2.1081,-2.1056,-2.1071,-2.1065,-2.1071,-2.105,-2.1045,-2.1048,-2.1033,-2.1035,-2.1079,-2.1119,-2.1035,-2.1037,-2.1194,-2.1199,-2.1203,-2.1283,0,0,0,0,0,0,-2.1059,-2.1065,-2.1092,-2.1079,-2.1083,-2.1139,-2.1073,-2.1067,-2.1075,-2.1068,-2.1059,-2.1055,-2.1031,-2.1076,-2.1081,-2.112,-2.1039,-2.119,-2.1196,-2.1201,-2.1276,-2.1289,-2.13,0,0,0,0,0,-2.1057,-2.1115,-2.1093,-2.1099,-2.1115,-2.1142,-2.1144,-2.1114,-2.1079,-2.1105,-2.1092,-2.1055,-2.1114,-2.1081,-2.1087,-2.1127,-2.1188,-2.1195,-2.1201,-2.1271,-2.1287,-2.13,0,0,0,0,0,0,-2.1132,-2.1112,-2.1088,-2.1144,-2.1145,-2.113,-2.1162,-2.1132,-2.1143,-2.1136,-2.1099,-2.1098,-2.1147,-2.1142,-2.1105,-2.1195,-2.1145,-2.1153,-2.1196,-2.1211,-2.1222,-2.1222,-2.1041,0,0,0,0,0,-2.1155,-2.1179,-2.116,-2.1211,-2.1212,-2.1187,-2.1198,-2.1175,-2.1175,-2.1175,-2.1165,-2.1167,-2.1185,-2.1198,-2.1214,-2.1276,-2.1273,-2.1307,-2.1319,-2.1329,-2.1336,-2.1367,-2.1382,-2.1226,-2.1226,-2.1226,0,0,-2.1203,-2.1195,-2.1212,-2.1225,-2.1224,-2.1248,-2.1188,-2.1217,-2.1235,-2.118,-2.1219,-2.1213,-2.1212,-2.1265,-2.1288,-2.1262,-2.1379,-2.1338,-2.1346,-2.1347,-2.1376,-2.1391,-2.1404,-2.1231,-2.123,-2.1229,0,0,-2.1301,-2.1299,-2.1339,-2.1339,-2.1337,-2.1321,-2.1331,-2.132,-2.1313,-2.1353,-2.1312,-2.1333,-2.1366,-2.1367,-2.1372,-2.1473,-2.1439,-2.1479,-2.1541,-2.1572,-2.1585,-2.1595,-2.1629,-2.1642,-2.1487,-2.1487,-2.1487,0,-2.136,-2.1396,-2.1364,-2.1396,-2.1403,-2.1355,-2.1395,-2.1397,-2.1401,-2.1407,-2.1379,-2.1419,-2.1415,-2.1467,-2.1492,-2.1498,-2.1508,-2.1479,-2.1585,-2.1596,-2.1605,-2.1637,-2.1651,-2.1492,-2.1491,-2.1491,-2.149,0,-2.1467,-2.1493,-2.1527,-2.1531,-2.1542,-2.1579,-2.1553,-2.1568,-2.1545,-2.1532,-2.1573,-2.1567,-2.158,-2.1592,-2.157,-2.1641,-2.1625,-2.1592,-2.154,-2.1625,-2.1655,-2.1667,-2.1498,-2.1497,-2.1495,-2.1494,0,0,-2.161,-2.1598,-2.1611,-2.1612,-2.1608,-2.1627,-2.1662,-2.1675,-2.1688,-2.1693,-2.172,-2.175,-2.1719,-2.1725,-2.1703,-2.1731,-2.1809,-2.1694,-2.1694,-2.1714,-2.1886,-2.1909,-2.1924,-2.1789,-2.1791,-2.1793,-2.1885,0,-2.1704,-2.1761,-2.1735,-2.1795,-2.1817,-2.1773,-2.1803,-2.1804,-2.1793,-2.181,-2.1798,-2.1819,-2.1778,-2.1781,-2.1807,-2.1794,-2.1843,-2.1788,-2.1813,-2.1814,-2.1811,-2.1939,-2.1963,-2.2051,-2.1897,-2.1899,-2.19,0,-2.182,-2.1829,-2.1892,-2.1883,-2.1891,-2.1919,-2.1929,-2.1947,-2.1947,-2.1937,-2.1944,-2.1916,-2.1949,-2.1901,-2.1946,-2.1909,-2.1918,-2.1914,-2.1916,-2.1915,-2.186,-2.1939,-2.2078,-2.209,-2.1918,-2.1917,-2.1916,0,-2.1915,-2.1944,-2.1985,-2.1988,-2.1979,-2.1999,-2.1997,-2.1994,-2.2004,-2.2013,-2.2019,-2.2033,-2.2039,-2.2051,-2.2027,-2.1994,-2.2075,-2.2025,-2.2067,-2.2067,-2.2083,-2.2082,-2.2223,-2.2094,-2.2094,-2.2094,-2.2094,0,-2.202,-2.206,-2.2027,-2.2052,-2.2095,-2.2065,-2.2109,-2.2101,-2.21,-2.2122,-2.2086,-2.2108,-2.2077,-2.2096,-2.2079,-2.2118,-2.2122,-2.2114,-2.2108,-2.2116,-2.2116,-2.2119,-2.2111,-2.2097,-2.2096,-2.2096,-2.2095,0,-2.2132,-2.2113,-2.2154,-2.2143,-2.2141,-2.2173,-2.2163,-2.2186,-2.2173,-2.2202,-2.2208,-2.2187,-2.2208,-2.2187,-2.2206,-2.2194,-2.2247,-2.2233,-2.2246,-2.2241,-2.2284,-2.2279,-2.2429,-2.2446,-2.2309,-2.2311,-2.2312,0,-2.2199,-2.2228,-2.2221,-2.2233,-2.2233,-2.2254,-2.2263,-2.2236,-2.2248,-2.2251,-2.2273,-2.2291,-2.2303,-2.2339,-2.2326,-2.2341,-2.2326,-2.2378,-2.2328,-2.2334,-2.2324,-2.2321,-2.2323,-2.2387,-2.2389,-2.239,-2.2391,0,-2.232,-2.2309,-2.2324,-2.2336,-2.2349,-2.2357,-2.2363,-2.2376,-2.2347,-2.2362,-2.2383,-2.2393,-2.2413,-2.2431,-2.2442,-2.244,-2.2411,-2.2407,-2.2417,-2.2423,-2.2429,-2.2424,-2.2271,-2.2403,-2.2402,-2.2401,-2.24,-2.24,-2.2409,-2.2433,-2.2431,-2.2449,-2.2451,-2.2457,-2.2478,-2.2468,-2.2484,-2.2498,-2.2482,-2.2507,-2.2507,-2.2519,-2.2521,-2.254,-2.2518,-2.2534,-2.2537,-2.254,-2.2545,-2.2428,-2.2543,-2.2542,-2.2542,-2.2542,-2.2541,0,-2.2525,-2.2522,-2.254,-2.2549,-2.2563,-2.2536,-2.2541,-2.2555,-2.2577,-2.258,-2.2594,-2.2618,-2.2635,-2.2625,-2.264,-2.2657,-2.2644,-2.2662,-2.2659,-2.2658,-2.2565,-2.2554,-2.2672,-2.2672,-2.2672,-2.2672,-2.2672,-2.2672,-2.2587,-2.2625,-2.2614,-2.2653,-2.2649,-2.2674,-2.2679,-2.2684,-2.2686,-2.2715,-2.2729,-2.2722,-2.272,-2.2734,-2.2749,-2.2746,-2.2752,-2.2774,-2.2765,-2.2678,-2.2665,-2.2653,-2.2641,-2.2776,-2.2776,-2.2856,-2.2857,-2.2858]},{"header":{"parameterUnit":"m.s-1","parameterCategory":1,"la1":30.2991,"la2":30.254,"lo1":-89.0895,"lo2":-89.0444,"dy":0.0017,"dx":0.0017,"nx":28,"ny":28,"refTime":"2025-12-21T03:00:00:Z","depth":0,"parameterNumber":3,"parameterNumberName":"V-component_of_WINDS"},"data":[0,0,0,0,0,0,0,0,0,0,0,0,0,0,0,0,0,0,0,0,0,0,0,0,0,0,0,0,0,0,0,0,0,0,0,0,0,0,0,0,0,0,0,0,0,0,0,0,0,0,0,0,0,0,0,0,0,0,0.5768,0.5768,0,0.581,0.581,0.5811,0.5795,0.5794,0.5793,0.5792,0.5833,0.5835,0.5837,0,0,0,0,0,0,0,0,0,0,0,0,0,0.5673,0.5675,0.5768,0.5768,0.5769,0.581,0.581,0.5811,0.5795,0.5794,0.5793,0.5792,0.5832,0.5835,0.5837,0,0,0,0,0,0,0,0,0,0,0,0,0,0.5714,0.5675,0.5767,0.5766,0.5766,0.581,0.581,0.5811,0.5795,0.5794,0.5793,0.5791,0.5832,0.5835,0.5837,0.5884,0,0,0.5847,0.5848,0,0,0,0,0,0,0,0,0.5712,0.5718,0.5766,0.5766,0.5766,0.5796,0.5792,0.5836,0.5796,0.5784,0.5792,0.579,0.5822,0.5825,0.5836,0.5886,0.5888,0.5847,0.5849,0.585,0.5851,0,0,0,0,0,0,0,0.5709,0.5716,0.5784,0.5766,0.5767,0.5763,0.5767,0.58,0.581,0.5785,0.5784,0.5789,0.5822,0.5834,0.5837,0.5889,0.5847,0.5849,0.5851,0.5852,0.5982,0.5984,0,0,0,0,0,0,0.5706,0.5714,0.5783,0.5785,0.5735,0.5766,0.577,0.5788,0.581,0.5812,0.5791,0.5789,0.5829,0.5834,0.5839,0.5897,0.585,0.5853,0.5854,0.598,0.5982,0.5984,0,0,0,0,0,0,0.5704,0.5713,0.5781,0.5749,0.5758,0.5769,0.5788,0.5789,0.5801,0.5814,0.5816,0.5801,0.5828,0.5834,0.5874,0.5898,0.5854,0.5857,0.5978,0.5981,0.5983,0.6013,0,0,0,0,0,0,0.5702,0.5712,0.573,0.575,0.576,0.5816,0.579,0.5791,0.5807,0.5804,0.5824,0.5826,0.5828,0.587,0.5877,0.5901,0.5859,0.5976,0.598,0.5983,0.601,0.6016,0.6022,0,0,0,0,0,0.5698,0.5736,0.5731,0.5739,0.5782,0.5817,0.5823,0.5824,0.5809,0.5827,0.5836,0.5826,0.5894,0.5874,0.5882,0.5908,0.5975,0.5979,0.5982,0.6007,0.6015,0.6021,0,0,0,0,0,0,0.5717,0.5738,0.5733,0.5778,0.5796,0.5815,0.5838,0.5832,0.5854,0.5851,0.5851,0.5856,0.5897,0.5906,0.5883,0.5956,0.5932,0.5938,0.5948,0.5956,0.5961,0.5959,0.5861,0,0,0,0,0,0.5726,0.5753,0.577,0.5808,0.5818,0.5826,0.5842,0.5841,0.586,0.5867,0.5879,0.5897,0.5923,0.5939,0.5964,0.6011,0.6016,0.6033,0.6039,0.6043,0.6048,0.6076,0.6085,0.5996,0.5996,0.5996,0,0,0.5745,0.576,0.5777,0.5812,0.5826,0.5855,0.5833,0.5863,0.5884,0.5872,0.5911,0.592,0.594,0.5984,0.6004,0.5993,0.6074,0.6048,0.6052,0.6054,0.6081,0.6089,0.6097,0.5999,0.5999,0.5998,0,0,0.5796,0.5809,0.5844,0.5859,0.5881,0.5887,0.5895,0.5915,0.5922,0.5961,0.5953,0.5978,0.6021,0.6037,0.6051,0.611,0.6102,0.6117,0.6148,0.6175,0.6182,0.6188,0.6211,0.6219,0.6122,0.6122,0.6122,0,0.5817,0.586,0.5861,0.5894,0.591,0.5901,0.5937,0.5951,0.598,0.5991,0.5978,0.6035,0.6048,0.6097,0.6111,0.6122,0.6132,0.6115,0.6181,0.6187,0.6193,0.6215,0.6223,0.6124,0.6124,0.6124,0.6123,0,0.5886,0.5916,0.5941,0.5971,0.599,0.6023,0.603,0.6049,0.6048,0.6055,0.6096,0.6112,0.614,0.6151,0.6149,0.6201,0.6193,0.6181,0.6157,0.6203,0.6224,0.6232,0.6127,0.6126,0.6125,0.6125,0,0,0.5947,0.598,0.5989,0.6004,0.6029,0.6052,0.6086,0.6115,0.6132,0.6152,0.6181,0.622,0.6209,0.6225,0.6225,0.6248,0.6297,0.6233,0.6234,0.6246,0.6357,0.6367,0.6377,0.6292,0.6293,0.6294,0.6356,0,0.6001,0.6061,0.6065,0.612,0.6149,0.6142,0.6171,0.619,0.6198,0.6224,0.6232,0.6261,0.6243,0.6253,0.6276,0.6286,0.6319,0.6281,0.6319,0.632,0.6316,0.6387,0.6398,0.6455,0.6363,0.6365,0.6366,0,0.6072,0.6097,0.6155,0.6178,0.619,0.6217,0.6245,0.6269,0.6291,0.6295,0.6314,0.6311,0.6346,0.6321,0.637,0.6345,0.636,0.6368,0.637,0.6374,0.6347,0.6395,0.6473,0.6482,0.6378,0.6377,0.6376,0,0.6114,0.6161,0.6203,0.6215,0.6243,0.6262,0.6275,0.6295,0.6313,0.6337,0.635,0.6377,0.6392,0.6414,0.6419,0.64,0.6469,0.6444,0.6474,0.6474,0.6489,0.6489,0.6572,0.6497,0.6497,0.6497,0.6497,0,0.6174,0.621,0.6223,0.6248,0.6289,0.6293,0.6333,0.6344,0.6363,0.6391,0.6386,0.6412,0.6416,0.6444,0.6447,0.6489,0.6495,0.65,0.6501,0.6501,0.6501,0.6512,0.6509,0.6499,0.6499,0.6498,0.6498,0,0.6228,0.6238,0.6283,0.6306,0.6313,0.6343,0.6363,0.6388,0.6396,0.6431,0.644,0.6453,0.6485,0.6492,0.6529,0.6532,0.6582,0.6577,0.6575,0.6575,0.6606,0.6604,0.6701,0.6715,0.6629,0.663,0.663,0,0.6267,0.6295,0.6322,0.6341,0.6355,0.6385,0.6405,0.641,0.643,0.6458,0.648,0.6512,0.6538,0.659,0.6602,0.6631,0.6629,0.6661,0.6633,0.6634,0.6632,0.6631,0.6634,0.6667,0.6668,0.6668,0.6669,0,0.6335,0.6339,0.6367,0.6398,0.6422,0.6446,0.6469,0.6484,0.6493,0.6516,0.655,0.657,0.661,0.6642,0.6672,0.6684,0.6679,0.6678,0.6687,0.6688,0.6686,0.669,0.6591,0.6676,0.6675,0.6675,0.6674,0.6674,0.6384,0.6409,0.6434,0.6466,0.6484,0.6506,0.6532,0.6544,0.6573,0.6607,0.6608,0.6645,0.6667,0.6707,0.6722,0.6751,0.6741,0.6753,0.6757,0.676,0.6764,0.6681,0.6756,0.6756,0.6756,0.6755,0.6755,0,0.6453,0.6469,0.6499,0.6533,0.6558,0.6552,0.6578,0.66,0.6633,0.6655,0.6681,0.6721,0.6753,0.6769,0.68,0.6821,0.6819,0.6829,0.6828,0.6832,0.677,0.676,0.683,0.683,0.683,0.683,0.683,0.683,0.6493,0.6537,0.6544,0.6598,0.6613,0.6651,0.6666,0.6687,0.6705,0.675,0.6777,0.6787,0.6807,0.6841,0.687,0.6874,0.6886,0.6898,0.69,0.6843,0.6835,0.6828,0.6819,0.69,0.69,0.696,0.696,0.6961]}]]